FW5295 Weather Reports


Display with metric or nautical units.
time (UTC)temp
F
wind
direction
speed
MPH
gust
MPH
rain 1hr
in
rain 24hr
in
rain mn
in
humidity
%
barometer
mb
20260906164237 76 24 3.0 7.0 0.00 0.00 0.00 69 1019.5
20260906163509 76 117 2.0 7.0 0.00 0.00 0.00 69 1019.2
20260906163230 75 48 4.0 7.0 0.00 0.00 0.00 71 1019.5
20260906162503 75 63 4.0 7.0 0.00 0.00 0.00 72 1019.5
20260906162232 76 88 2.0 7.0 0.00 0.00 0.00 73 1019.2
20260906161507 75 79 5.0 6.0 0.00 0.00 0.00 73 1019.5
20260906161008 75 58 4.0 7.0 0.00 0.00 0.00 72 1019.2
20260906160505 76 19 2.0 8.0 0.00 0.00 0.00 73 1019.5
20260906160222 75 57 4.0 10.0 0.00 0.00 0.00 73 1019.2
20260906155506 76 123 4.0 10.0 0.00 0.00 0.00 73 1019.2
20260906155004 75 76 2.0 10.0 0.00 0.00 0.00 71 1019.2
20260906154503 76 52 2.0 6.0 0.00 0.00 0.00 73 1019.2
20260906154002 75 94 3.0 8.0 0.00 0.00 0.00 74 1019.2
20260906153502 75 76 2.0 8.0 0.00 0.00 0.00 75 1018.8
20260906153003 76 113 4.0 6.0 0.00 0.00 0.00 74 1018.8
20260906152501 75 8 4.0 9.0 0.00 0.00 0.00 76 1019.2
20260906152001 75 69 6.0 9.0 0.00 0.00 0.00 75 1018.8
20260906151502 75 106 4.0 8.0 0.00 0.00 0.00 75 1018.8
20260906151002 75 106 5.0 7.0 0.00 0.00 0.00 76 1018.8
20260906150948 75 102 1.0 8.0 0.00 0.00 0.00 78 1018.8
20260906145958 75 115 1.0 8.0 0.00 0.00 0.00 78 1018.8
20260906145459 75 141 2.0 6.0 0.00 0.00 0.00 77 1019.2
20260906145000 74 33 1.0 6.0 0.00 0.00 0.00 77 1018.8
20260906144458 74 67 3.0 6.0 0.00 0.00 0.00 80 1018.8
20260906143957 74 41 3.0 7.0 0.00 0.00 0.00 81 1019.2
20260906143721 73 138 3.0 7.0 0.00 0.00 0.00 82 1018.8
20260906142957 73 80 4.0 6.0 0.00 0.00 0.00 82 1019.2
20260906142458 73 142 4.0 6.0 0.00 0.00 0.00 83 1018.8
20260906141954 73 67 3.0 6.0 0.00 0.00 0.00 84 1019.2
20260906141454 72 76 3.0 6.0 0.00 0.00 0.00 84 1018.8
20260906140953 72 71 2.0 7.0 0.00 0.00 0.00 86 1018.8
20260906140455 72 116 2.0 8.0 0.00 0.00 0.00 85 1018.8
20260906140432 71 72 6.0 8.0 0.00 0.00 0.00 86 1018.8
20260906135453 71 69 5.0 6.0 0.00 0.00 0.00 87 1019.2
20260906134952 71 108 2.0 6.0 0.00 0.00 0.00 88 1019.2
20260906134452 71 137 2.0 6.0 0.00 0.00 0.00 90 1019.2
20260906133952 71 127 4.0 8.0 0.00 0.00 0.00 90 1019.2
20260906133449 70 105 2.0 8.0 0.00 0.00 0.00 90 1019.2
20260906132950 70 68 4.0 7.0 0.00 0.00 0.00 91 1018.8
20260906132449 70 75 7.0 7.0 0.00 0.00 0.00 92 1018.8
20260906131949 69 81 5.0 8.0 0.00 0.00 0.00 93 1018.8
20260906131501 69 86 5.0 8.0 0.00 0.00 0.00 94 1018.8
20260906130949 69 131 2.0 5.0 0.00 0.00 0.00 95 1018.5
20260906130448 69 69 2.0 6.0 0.00 0.00 0.00 96 1018.5
20260906130206 68 119 4.0 6.0 0.00 0.00 0.00 97 1018.5
20260906125447 68 68 4.0 6.0 0.00 0.00 0.00 98 1018.8
20260906124944 68 72 2.0 4.0 0.00 0.00 0.00 99 1018.8
20260906124445 67 73 3.0 4.0 0.00 0.00 0.00 99 1018.8
20260906123946 67 75 3.0 3.0 0.00 0.00 0.00 99 1018.5
20260906123459 67 96 2.0 3.0 0.00 0.00 0.00 99 1018.5
20260906122945 67 81 0.0 4.0 0.00 0.00 0.00 99 1018.5
20260906122445 67 64 1.0 4.0 0.00 0.00 0.00 99 1018.5
20260906121956 67 103 1.0 3.0 0.00 0.00 0.00 99 1018.5
20260906121441 66 103 2.0 2.0 0.00 0.00 0.00 99 1018.5
20260906120941 66 352 0.0 2.0 0.00 0.00 0.00 99 1018.5
20260906120440 66 84 0.0 3.0 0.00 0.00 0.00 99 1018.5
20260906115941 66 77 2.0 3.0 0.00 0.00 0.00 99 1018.2
20260906115441 66 76 0.0 2.0 0.00 0.00 0.00 99 1018.2
20260906114940 66 50 0.0 3.0 0.00 0.00 0.00 99 1018.2
20260906114438 66 94 2.0 3.0 0.00 0.00 0.00 99 1017.8
20260906113938 66 85 0.0 3.0 0.00 0.00 0.00 99 1017.8
20260906113437 66 74 1.0 3.0 0.00 0.00 0.00 99 1017.8
20260906112938 66 84 2.0 4.0 0.00 0.00 0.00 99 1017.5
20260906112436 66 72 1.0 4.0 0.00 0.00 0.00 99 1017.8
20260906111936 67 110 0.0 5.0 0.00 0.00 0.00 99 1017.5
20260906111436 67 86 5.0 5.0 0.00 0.00 0.00 99 1017.5
20260906110936 67 91 2.0 3.0 0.00 0.00 0.00 99 1017.5
20260906110447 67 95 2.0 4.0 0.00 0.00 0.00 99 1017.5
20260906105934 67 49 2.0 4.0 0.00 0.00 0.00 99 1017.5
20260906105434 67 93 3.0 4.0 0.00 0.00 0.00 99 1017.5
20260906105154 67 81 2.0 4.0 0.00 0.00 0.00 99 1017.5
20260906104433 67 96 2.0 5.0 0.00 0.00 0.00 99 1017.1
20260906103934 67 91 2.0 5.0 0.00 0.00 0.00 99 1017.5
20260906103433 67 138 1.0 3.0 0.00 0.00 0.00 99 1017.5
20260906102931 67 348 1.0 3.0 0.00 0.00 0.00 99 1017.1
20260906102430 66 81 2.0 3.0 0.00 0.00 0.00 99 1017.1
20260906101932 66 10 1.0 3.0 0.00 0.00 0.00 99 1017.1
20260906101429 66 83 1.0 3.0 0.00 0.00 0.00 99 1017.1
20260906100930 66 2 1.0 3.0 0.00 0.00 0.00 98 1017.1
20260906100429 66 37 0.0 2.0 0.00 0.00 0.00 98 1017.1
20260906095928 66 31 1.0 3.0 0.00 0.00 0.00 98 1017.1
20260906095428 66 73 2.0 3.0 0.00 0.00 0.00 98 1017.1
20260906095146 66 51 1.0 3.0 0.00 0.00 0.00 98 1017.1
20260906094652 65 87 1.0 2.0 0.00 0.00 0.00 98 1017.1
20260906094146 65 10 0.0 2.0 0.00 0.00 0.00 98 1017.1
20260906093425 65 55 0.0 1.0 0.00 0.00 0.00 98 1017.1
20260906092925 65 75 0.0 4.0 0.00 0.00 0.00 98 1016.7
20260906092425 65 60 0.0 4.0 0.00 0.00 0.00 98 1017.1
20260906091926 65 246 0.0 1.0 0.00 0.00 0.00 98 1016.7
20260906091423 65 4 0.0 1.0 0.00 0.00 0.00 98 1017.1
20260906090922 65 124 0.0 1.0 0.00 0.00 0.00 98 1017.1
20260906090424 65 224 0.0 2.0 0.00 0.00 0.00 98 1017.1
20260906085923 65 203 0.0 2.0 0.00 0.00 0.00 98 1017.1
20260906085421 65 329 0.0 2.0 0.00 0.00 0.00 98 1016.7
20260906084922 65 37 0.0 0.0 0.00 0.00 0.00 97 1017.1
20260906084422 65 217 0.0 0.0 0.00 0.00 0.00 97 1016.7
20260906083923 65 322 0.0 0.0 0.00 0.00 0.00 97 1016.7
20260906083421 66 322 0.0 1.0 0.00 0.00 0.00 97 1016.7
20260906082920 66 142 0.0 1.0 0.00 0.00 0.00 97 1016.7
20260906082419 66 6 0.0 0.0 0.00 0.00 0.00 97 1016.7
20260906081933 66 37 0.0 0.0 0.00 0.00 0.00 97 1017.1
20260906081417 66 309 0.0 0.0 0.00 0.00 0.00 97 1017.1
20260906080916 66 231 0.0 0.0 0.00 0.00 0.00 97 1017.1
20260906080416 66 129 0.0 0.0 0.00 0.00 0.00 97 1017.1
20260906075916 66 129 0.0 0.0 0.00 0.00 0.00 97 1016.7
20260906075415 67 129 0.0 0.0 0.00 0.00 0.00 97 1017.1
20260906074915 67 50 0.0 0.0 0.00 0.00 0.00 97 1017.1
20260906074414 67 50 0.0 0.0 0.00 0.00 0.00 97 1017.1
20260906073913 67 129 0.0 1.0 0.00 0.00 0.00 97 1016.7
20260906073413 67 129 0.0 1.0 0.00 0.00 0.00 96 1017.1
20260906072913 67 50 0.0 0.0 0.00 0.00 0.00 96 1017.1
20260906072411 67 142 0.0 1.0 0.00 0.00 0.00 96 1017.1
20260906071913 67 142 0.0 1.0 0.00 0.00 0.00 96 1017.1
20260906071411 67 127 0.0 0.0 0.00 0.00 0.00 96 1017.1
20260906070912 67 142 0.0 1.0 0.00 0.00 0.00 95 1017.1
20260906070411 68 129 0.0 1.0 0.00 0.00 0.00 95 1017.1
20260906065909 68 135 0.0 1.0 0.00 0.00 0.00 95 1017.1
20260906065638 68 142 0.0 1.0 0.00 0.00 0.00 95 1017.1
20260906064911 68 142 0.0 1.0 0.00 0.00 0.00 95 1017.1
20260906064407 68 142 0.0 1.0 0.00 0.00 0.00 95 1017.1
20260906063908 68 228 0.0 2.0 0.00 0.00 0.00 95 1017.1
20260906063848 68 110 0.0 2.0 0.00 0.00 0.00 95 1017.1
20260906062906 68 53 0.0 2.0 0.00 0.00 0.00 94 1017.1
20260906062408 69 60 0.0 3.0 0.00 0.00 0.00 94 1017.1
20260906061905 69 33 1.0 3.0 0.00 0.00 0.00 94 1017.1
20260906061404 69 44 2.0 3.0 0.00 0.00 0.00 94 1017.1
20260906060905 69 15 1.0 4.0 0.00 0.00 0.00 94 1017.1
20260906060404 69 77 1.0 4.0 0.00 0.00 0.00 94 1017.1
20260906055905 69 89 0.0 4.0 0.00 0.00 0.00 93 1017.1
20260906055404 69 63 1.0 4.0 0.00 0.00 0.00 93 1017.1
20260906054903 69 1 2.0 4.0 0.00 0.00 0.00 93 1017.1
20260906054402 69 89 2.0 3.0 0.00 0.00 0.00 93 1017.1
20260906053902 69 323 1.0 3.0 0.00 0.00 0.00 93 1017.1
20260906053402 69 79 0.0 4.0 0.00 0.00 0.00 93 1017.1
20260906052900 69 67 2.0 4.0 0.00 0.00 0.00 93 1017.1
20260906052402 69 26 0.0 4.0 0.00 0.00 0.00 93 1017.1
20260906051900 69 13 0.0 3.0 0.00 0.00 0.00 93 1016.7
20260906051359 69 344 1.0 4.0 0.00 0.00 0.00 93 1017.1
20260906050858 69 5 0.0 4.0 0.00 0.00 0.00 93 1016.7
20260906050359 70 39 1.0 4.0 0.00 0.00 0.00 92 1016.7
20260906045858 70 72 3.0 4.0 0.00 0.00 0.00 92 1016.7
20260906045358 70 82 3.0 7.0 0.00 0.00 0.00 92 1016.7
20260906044858 70 68 2.0 7.0 0.00 0.00 0.00 92 1016.7
20260906044359 70 33 1.0 4.0 0.00 0.00 0.00 92 1016.4
20260906043857 70 124 1.0 9.0 0.00 0.00 0.00 92 1016.7
20260906043355 70 86 4.0 9.0 0.00 0.00 0.00 92 1016.7
20260906042855 70 86 3.0 6.0 0.00 0.00 0.00 92 1016.4
20260906042353 70 59 2.0 5.0 0.00 0.00 0.00 92 1016.4
20260906041854 70 50 2.0 4.0 0.00 0.00 0.00 91 1016.7
20260906041354 70 13 2.0 5.0 0.00 0.00 0.00 91 1016.4
20260906040855 70 100 3.0 5.0 0.00 0.00 0.00 91 1016.4
20260906040611 70 0 2.0 7.0 0.00 0.00 0.00 91 1016.0
20260906035852 70 66 4.0 7.0 0.00 0.00 0.00 91 1016.4
20260906035352 70 106 3.0 7.0 0.00 0.00 0.00 91 1016.0
20260906034850 70 77 4.0 6.0 0.00 0.00 0.00 91 1016.4
20260906034351 70 66 4.0 6.0 0.00 0.00 0.00 91 1016.0
20260906034059 70 80 3.0 5.0 0.00 0.00 0.00 90 1016.0
20260906033953 70 48 2.0 5.0 0.00 0.00 0.00 90 1016.0
20260906032849 70 78 4.0 5.0 0.00 0.00 0.00 90 1016.0
20260906032400 70 87 3.0 6.0 0.00 0.00 0.00 90 1016.0
20260906031847 70 70 3.0 6.0 0.00 0.00 0.00 90 1016.0
20260906031348 70 91 2.0 4.0 0.00 0.00 0.00 90 1016.0
20260906030847 70 89 2.0 5.0 0.00 0.00 0.00 90 1016.0
20260906030345 70 82 2.0 6.0 0.00 0.00 0.00 90 1015.7
20260906030111 70 89 4.0 6.0 0.00 0.00 0.00 90 1015.7
20260906025400 71 80 3.0 5.0 0.00 0.00 0.00 89 1015.4
20260906025109 71 82 3.0 5.0 0.00 0.00 0.00 89 1016.0
20260906024601 71 79 2.0 6.0 0.00 0.00 0.00 89 1015.7
20260906023845 71 92 4.0 6.0 0.00 0.00 0.00 89 1015.7
20260906023345 71 89 2.0 6.0 0.00 0.00 0.00 90 1015.7
20260906022841 71 59 2.0 6.0 0.00 0.00 0.00 90 1015.7
20260906022342 71 88 2.0 9.0 0.00 0.00 0.00 89 1015.7
20260906021840 71 78 7.0 9.0 0.00 0.00 0.00 89 1015.7
20260906021341 71 94 1.0 6.0 0.00 0.00 0.00 89 1015.7
20260906020840 71 69 3.0 10.0 0.00 0.00 0.00 89 1015.7
20260906020339 71 76 4.0 11.0 0.00 0.00 0.00 89 1015.7
20260906020101 71 81 3.0 11.0 0.00 0.00 0.00 88 1015.7
20260906015340 71 80 6.0 8.0 0.00 0.00 0.00 88 1015.7
20260906014841 71 25 3.0 8.0 0.00 0.00 0.00 88 1015.7
20260906014338 71 4 1.0 6.0 0.00 0.00 0.00 88 1015.7
20260906014055 71 84 3.0 6.0 0.00 0.00 0.00 89 1016.0
20260906013337 71 40 2.0 7.0 0.00 0.00 0.00 88 1015.7
20260906012836 71 93 2.0 7.0 0.00 0.00 0.00 88 1016.0
20260906012338 71 66 2.0 7.0 0.00 0.00 0.00 88 1016.0
20260906011835 71 106 4.0 6.0 0.00 0.00 0.00 88 1015.7
20260906011336 71 70 3.0 6.0 0.00 0.00 0.00 88 1016.0
20260906011106 71 68 2.0 7.0 0.00 0.00 0.00 89 1015.7
20260906010334 71 83 5.0 7.0 0.00 0.00 0.00 89 1015.7
20260906005833 71 79 3.0 6.0 0.00 0.00 0.00 89 1015.7
20260906005334 71 53 2.0 7.0 0.00 0.00 0.00 89 1015.7
20260906005055 71 118 3.0 7.0 0.00 0.00 0.00 89 1015.7
20260906004331 72 86 4.0 10.0 0.00 0.00 0.00 89 1015.7
20260906003832 72 47 3.0 10.0 0.00 0.00 0.00 88 1015.7
20260906003338 72 26 5.0 10.0 0.00 0.00 0.00 87 1015.7
20260906002831 73 75 3.0 9.0 0.00 0.00 0.00 87 1015.7
20260906002330 73 55 0.0 12.0 0.00 0.00 0.00 87 1015.4
20260906001829 73 13 3.0 12.0 0.00 0.00 0.00 86 1015.4
20260906001329 74 68 6.0 9.0 0.00 0.00 0.00 86 1015.4
20260906000828 74 86 6.0 8.0 0.00 0.00 0.00 85 1015.0
20260906000327 74 81 4.0 5.0 0.00 0.00 0.00 86 1015.4
20260905235827 75 126 0.0 6.0 0.00 0.00 0.00 85 1015.0
20260905235554 75 352 2.0 6.0 0.00 0.00 0.00 84 1015.0
20260905234825 75 352 2.0 7.0 0.00 0.00 0.00 83 1015.0
20260905234325 75 50 4.0 9.0 0.00 0.00 0.00 83 1014.7
20260905233824 76 45 2.0 9.0 0.00 0.00 0.00 84 1015.0
20260905233324 76 70 2.0 7.0 0.00 0.00 0.00 83 1014.7
20260905232826 76 346 4.0 7.0 0.00 0.00 0.00 83 1015.0
20260905232323 76 45 1.0 6.0 0.00 0.00 0.00 83 1015.0
20260905231824 76 64 3.0 7.0 0.00 0.00 0.00 83 1015.0
20260905231323 77 85 6.0 7.0 0.00 0.00 0.00 83 1014.7
20260905230824 77 98 2.0 8.0 0.00 0.00 0.00 82 1014.7
20260905230333 78 99 3.0 8.0 0.00 0.00 0.00 81 1014.7
20260905225820 78 47 2.0 7.0 0.00 0.00 0.00 80 1014.3
20260905225323 78 52 5.0 7.0 0.00 0.00 0.00 80 1014.3
20260905224821 79 59 2.0 6.0 0.00 0.00 0.00 80 1014.3
20260905224321 79 37 4.0 6.0 0.00 0.00 0.00 79 1014.3
20260905223819 80 31 4.0 6.0 0.00 0.00 0.00 77 1014.3
20260905223318 80 174 2.0 6.0 0.00 0.00 0.00 76 1014.3
20260905222820 80 18 0.0 7.0 0.00 0.00 0.00 75 1014.0
20260905222317 80 334 4.0 7.0 0.00 0.00 0.00 74 1014.0
20260905221818 80 73 4.0 6.0 0.00 0.00 0.00 75 1014.3
20260905221318 80 357 2.0 5.0 0.00 0.00 0.00 76 1014.3
20260905220817 80 62 3.0 10.0 0.00 0.00 0.00 76 1014.0
20260905220314 80 332 2.0 10.0 0.00 0.00 0.00 75 1014.3
20260905215814 80 88 3.0 8.0 0.00 0.00 0.00 74 1014.0
20260905215314 80 353 1.0 4.0 0.00 0.00 0.00 75 1014.0
20260905215035 80 32 1.0 5.0 0.00 0.00 0.00 76 1014.3
20260905214755 80 343 3.0 6.0 0.00 0.00 0.00 76 1014.3
20260905213813 80 340 4.0 4.0 0.00 0.00 0.00 75 1014.3
20260905213314 80 24 1.0 6.0 0.00 0.00 0.00 76 1014.3
20260905212812 80 72 4.0 6.0 0.00 0.00 0.00 76 1014.3
20260905212310 80 299 0.0 5.0 0.00 0.00 0.00 76 1014.0
20260905211812 80 25 2.0 5.0 0.00 0.00 0.00 76 1014.3
20260905211311 80 7 3.0 5.0 0.00 0.00 0.00 77 1014.0
20260905210810 80 18 1.0 6.0 0.00 0.00 0.00 77 1014.3
20260905210534 80 352 2.0 6.0 0.00 0.00 0.00 77 1014.3
20260905205808 80 3 2.0 7.0 0.00 0.00 0.00 78 1014.3
20260905205309 80 81 2.0 7.0 0.00 0.00 0.00 77 1014.3
20260905205026 80 62 6.0 6.0 0.00 0.00 0.00 79 1014.3
20260905204309 79 247 1.0 5.0 0.00 0.00 0.00 81 1014.3
20260905203806 79 20 4.0 5.0 0.00 0.00 0.00 81 1014.3
20260905203308 79 96 3.0 7.0 0.00 0.00 0.00 81 1014.7
20260905202806 79 318 3.0 7.0 0.00 0.00 0.00 81 1014.7
20260905202306 78 14 0.0 4.0 0.00 0.00 0.00 82 1014.7
20260905201819 78 18 1.0 4.0 0.00 0.00 0.00 83 1014.3
20260905201305 78 59 4.0 6.0 0.00 0.00 0.00 84 1014.7
20260905200803 77 105 2.0 6.0 0.00 0.00 0.00 83 1014.7
20260905200520 78 12 3.0 6.0 0.00 0.00 0.00 83 1014.7
20260905195804 78 25 6.0 6.0 0.00 0.00 0.00 85 1014.7
20260905195306 77 68 2.0 6.0 0.00 0.00 0.00 85 1014.7
20260905195020 77 12 2.0 6.0 0.00 0.00 0.00 85 1014.7
20260905194301 77 56 4.0 6.0 0.00 0.00 0.00 85 1014.7
20260905193801 77 51 1.0 5.0 0.00 0.00 0.00 85 1014.7
20260905193300 77 30 1.0 8.0 0.00 0.00 0.00 85 1014.7
20260905192800 77 341 3.0 8.0 0.00 0.00 0.00 85 1015.0
20260905192300 77 10 3.0 6.0 0.00 0.00 0.00 85 1015.0
20260905191759 77 61 4.0 6.0 0.00 0.00 0.00 85 1015.0
20260905191300 77 11 3.0 6.0 0.00 0.00 0.00 85 1015.0
20260905190758 77 36 4.0 9.0 0.00 0.00 0.00 85 1015.0
20260905190259 77 22 4.0 9.0 0.00 0.00 0.00 85 1015.0
20260905185757 77 77 2.0 7.0 0.00 0.00 0.00 85 1015.0
20260905185255 78 77 3.0 8.0 0.00 0.00 0.00 85 1015.0
20260905184756 78 50 2.0 8.0 0.00 0.00 0.00 84 1015.0
20260905184514 78 349 5.0 6.0 0.00 0.00 0.00 84 1015.0
20260905183754 78 85 5.0 5.0 0.00 0.00 0.00 85 1015.0
20260905183253 78 7 2.0 10.0 0.00 0.00 0.00 85 1015.0
20260905182754 78 358 9.0 10.0 0.00 0.00 0.00 85 1015.0
20260905182254 78 354 3.0 6.0 0.00 0.00 0.00 85 1015.0
20260905181755 78 41 4.0 6.0 0.00 0.00 0.00 84 1015.0
20260905181513 78 33 4.0 8.0 0.00 0.00 0.00 84 1015.0
20260905180751 78 357 3.0 8.0 0.00 0.00 0.00 84 1015.0
20260905180307 79 4 2.0 7.0 0.00 0.00 0.00 85 1015.0
20260905175751 78 61 3.0 7.0 0.00 0.00 0.00 84 1015.0
20260905175251 79 354 2.0 7.0 0.00 0.00 0.00 83 1015.0
20260905174749 79 75 6.0 7.0 0.00 0.00 0.00 85 1014.7
20260905174518 78 98 2.0 8.0 0.00 0.00 0.00 85 1015.0
20260905173749 79 344 4.0 8.0 0.00 0.00 0.00 84 1014.7
20260905173249 79 79 1.0 5.0 0.00 0.00 0.00 84 1014.7
20260905172747 79 19 3.0 6.0 0.00 0.00 0.00 83 1014.7
20260905172246 80 65 2.0 7.0 0.00 0.00 0.00 82 1014.7
20260905171747 80 80 2.0 7.0 0.00 0.00 0.00 83 1014.7
20260905171246 79 35 2.0 7.0 0.00 0.00 0.00 84 1014.7
20260905170745 80 75 5.0 8.0 0.00 0.00 0.00 83 1014.7
20260905170246 80 187 0.0 8.0 0.00 0.00 0.00 83 1014.7
20260905165744 80 58 4.0 8.0 0.00 0.00 0.00 83 1014.7
20260905165244 80 67 4.0 8.0 0.00 0.00 0.00 83 1014.7
20260905165223 80 9 4.0 10.0 0.00 0.00 0.00 84 1015.0
20260905164508 80 45 3.0 10.0 0.00 0.00 0.00 85 1015.0